User: anonymous   Login
Location: Bakov nad Jizerou
(50.4784°N, 14.9394°E)
Time: 23:12:11
(UTC+00:00)
Language:

Cosmos 968 Rocket - Orbit

View from above orbital plane
View from above orbital plane
View from above satellite
View from above satellite

Ground track
Ground track

The orbit data is extracted from the following two-line orbital elements,

1 10521U 77119B   21269.42319944 -.00000032  00000-0 -15073-5 0  9998
2 10521  74.0242 255.4092 0022247 248.5618 111.3164 14.40837377296938
Epoch (UTC): 26 September 2021 10:09:24
Eccentricity: 0.0022247
inclination: 74.0242°
perigee height: 740 km
apogee height: 771 km
right ascension of ascending node: 255.4092°
argument of perigee: 248.5618°
revolutions per day: 14.40837377
mean anomaly at epoch: 111.3164°
orbit number at epoch: 29693

The dashed part of the orbit path shows where the satellite is in the earth's shadow,  

DLR